DateTimeUTC,F1_A11,F1_S11,BsB_S11,BsG_S11,BsR_S11,BbsB_S11,BbsG_S11,BbsR_S11,BaB_A11,BaG_A11,BaR_A11,Tu_S11,T_S11,Uu_S11,U_S11,P_S11,T1_A11
2021-12-08T05:00:00Z,00000200,21000000,,,,,,,0000.22,0000.31,0000.11,21.2,28.0,,00.0,0636.7,31.5
2021-12-08T05:01:00Z,00000200,21000000,,,,,,,-000.20,-000.21,-000.25,21.2,28.0,,00.0,0636.7,31.5
2021-12-08T05:02:00Z,00000200,21000000,,,,,,,0000.09,0000.22,-000.11,21.2,28.0,,00.0,0636.7,31.5
2021-12-08T05:03:00Z,00000200,61000000,,,,,,,0000.14,0000.05,0000.28,21.3,28.0,,00.0,0636.7,31.5
2021-12-08T05:04:00Z,00000200,41000000,0000.00,0000.43,0000.16,0000.34,0000.01,0000.33,-000.01,-000.24,0000.17,21.4,27.9,,00.0,0637.6,31.5
2021-12-08T05:05:00Z,00000200,01000000,0000.01,0000.08,-000.06,0000.46,0000.04,-000.08,0000.13,-000.04,-000.08,21.4,27.9,,00.0,0637.6,31.5
2021-12-08T05:06:00Z,00000200,01000000,0000.30,-000.14,0000.08,-000.06,-000.04,0000.32,-000.18,0000.07,-000.19,21.3,27.8,,00.0,0637.5,31.4
2021-12-08T05:07:00Z,00000200,01000000,-000.16,0000.32,-000.11,0000.19,0000.07,0000.15,0000.12,0000.11,-000.28,21.3,27.8,,00.0,0637.5,31.4
2021-12-08T05:08:00Z,00000200,01000000,-000.14,0000.08,-000.21,0000.25,0000.06,-000.36,-000.06,0000.31,0000.04,21.3,27.7,,00.0,0637.6,31.4
2021-12-08T05:09:00Z,00000200,01000000,-000.22,0000.07,0000.23,0000.25,0000.33,-000.08,0000.13,0000.22,0000.54,21.4,27.7,,00.0,0637.5,31.4
2021-12-08T05:10:00Z,00000200,01000000,-000.38,0000.28,0000.19,0000.38,-000.28,0000.03,0000.07,-000.21,-000.14,21.4,27.8,,00.0,0637.5,31.5
2021-12-08T05:11:00Z,00000200,01000000,-000.47,0000.34,-000.17,0000.38,0000.10,0000.08,-000.33,-000.43,-000.12,21.4,27.8,,00.0,0637.6,31.5
2021-12-08T05:12:00Z,00000200,01000000,0000.16,0000.71,0000.13,0000.46,0000.30,0000.29,0000.32,-000.11,0000.15,21.5,27.7,,00.0,0637.6,31.5
2021-12-08T05:13:00Z,00000200,01000000,0000.53,0000.12,-000.05,0000.43,0000.15,0000.14,-000.17,0000.05,-000.14,21.5,27.8,,00.0,0637.6,31.5
2021-12-08T05:14:00Z,00000200,01000000,0000.58,0000.42,0000.01,0000.01,-000.09,-000.04,-000.18,0000.01,0000.26,21.5,27.8,,00.0,0637.6,31.5
2021-12-08T05:15:00Z,00000200,01000000,0000.39,-000.03,-000.19,-000.04,-000.12,0000.04,0000.27,0000.17,-000.13,21.6,27.8,,00.0,0637.6,31.5
2021-12-08T05:16:00Z,00000200,01000000,0000.37,0000.19,-000.60,0000.13,-000.04,0000.11,-000.03,-000.13,-000.01,21.6,27.8,,00.0,0637.6,31.5
2021-12-08T05:17:00Z,00000200,01000000,0000.01,0000.07,-000.58,-000.13,-000.05,-000.18,-000.30,-000.11,-000.11,21.7,27.8,,00.0,0637.6,31.5
2021-12-08T05:18:00Z,00000200,01000000,-000.26,0000.06,0000.01,0000.39,0000.29,0000.20,0000.14,0000.29,-000.05,21.7,27.9,,00.0,0637.6,31.5
2021-12-08T05:19:00Z,00000200,01000000,0000.19,0000.01,0000.27,-000.13,-000.28,0000.55,-000.18,-000.35,0000.08,21.6,27.9,,00.0,0637.6,31.5
2021-12-08T05:20:00Z,00000200,01000000,0000.03,0000.09,-000.01,0000.46,-000.04,0000.17,0000.22,-000.35,0000.03,21.5,27.9,,00.0,0637.6,31.5
2021-12-08T05:21:00Z,00000200,01000000,-000.01,0000.21,-000.52,0000.90,0000.11,-000.14,-000.45,-000.10,-000.67,21.5,27.8,,00.0,0637.6,31.5
2021-12-08T05:22:00Z,00000200,01000000,-000.34,-000.06,-000.39,-000.20,0000.01,-000.25,0000.09,0000.00,-000.09,21.4,27.8,,00.0,0637.5,31.5
2021-12-08T05:23:00Z,00000200,01000000,-000.20,0000.18,-000.30,0000.32,-000.05,0000.20,0000.12,0000.11,0000.36,21.4,27.8,,00.0,0637.5,31.5
2021-12-08T05:24:00Z,00000200,01000000,-000.31,0000.22,-000.16,-000.09,0000.22,-000.05,-000.05,0000.00,-000.05,21.4,27.7,,00.0,0637.4,31.5
2021-12-08T05:25:00Z,00000200,01000000,-000.07,-000.11,-000.08,0000.01,0000.05,-000.50,0000.07,0000.22,0000.14,21.4,27.7,,00.0,0637.4,31.5
2021-12-08T05:26:00Z,00000200,01000000,-000.44,0000.22,-000.48,0000.27,0000.33,-000.17,0000.06,-000.17,-000.01,21.5,27.8,,00.0,0637.4,31.5
2021-12-08T05:27:00Z,00000200,01000000,0000.02,0000.16,0000.10,0000.06,0000.02,0000.03,-000.07,0000.12,0000.09,21.5,27.8,,00.0,0637.4,31.5
2021-12-08T05:28:00Z,00000200,01000000,0000.06,0000.41,-000.18,-000.11,-000.16,-000.17,-000.21,0000.09,-000.19,21.6,27.8,,00.0,0637.4,31.5
2021-12-08T05:29:00Z,00000200,01000000,-000.04,0000.08,-000.06,-000.12,-000.27,0000.39,0000.06,0000.03,0000.03,21.6,27.8,,00.0,0637.4,31.5
2021-12-08T05:30:00Z,00000200,01000000,0000.05,0000.11,-000.40,0000.19,-000.09,-000.20,0000.38,0000.17,0000.41,21.6,27.8,,00.0,0637.4,31.5
2021-12-08T05:31:00Z,00000200,01000000,0000.66,-000.16,-000.14,0000.89,-000.27,0000.12,0000.05,0000.02,-000.15,21.7,27.8,,00.0,0637.4,31.5
2021-12-08T05:32:00Z,00000200,01000000,0000.17,-000.03,-000.23,0000.22,-000.15,-000.17,0000.05,0000.31,0000.18,21.6,27.8,,00.0,0637.5,31.5
2021-12-08T05:33:00Z,00000200,01000000,0000.01,0000.25,-000.01,-000.20,0000.11,-000.03,0000.16,-000.17,0000.04,21.6,27.8,,00.0,0637.4,31.5
2021-12-08T05:34:00Z,00000200,01000000,0000.55,0000.31,-000.20,-000.37,0000.20,-000.35,-000.09,0000.03,0000.36,21.5,27.8,,00.0,0637.4,31.5
2021-12-08T05:35:00Z,00000200,01000000,0000.31,0000.27,-000.35,0000.80,0000.32,-000.18,0000.24,0000.22,-000.20,21.4,27.8,,00.0,0637.4,31.5
2021-12-08T05:36:00Z,00000200,01000000,0000.03,0000.42,0000.05,-000.62,-000.02,0000.18,-000.34,-000.20,-000.20,21.4,27.7,,00.0,0637.3,31.4
2021-12-08T05:37:00Z,00000200,01000000,-000.80,0000.20,-000.22,0000.56,-000.11,-000.27,0000.17,0000.10,-000.11,21.3,27.7,,00.0,0637.2,31.4
2021-12-08T05:38:00Z,00000200,01000000,-000.04,0000.23,-000.10,-000.29,0000.05,0000.05,-000.02,-000.05,0000.03,21.3,27.7,,00.0,0637.2,31.4
2021-12-08T05:39:00Z,00000200,01000000,-000.12,0000.46,-000.31,-000.35,-000.16,0000.25,0000.15,0000.24,0000.37,21.3,27.7,,00.0,0637.2,31.4
2021-12-08T05:40:00Z,00000200,01000000,-000.08,-000.10,0000.29,0000.73,-000.05,0000.02,-000.01,-000.21,-000.08,21.3,27.7,,00.0,0637.1,31.4
2021-12-08T05:41:00Z,00000200,01000000,0000.55,0000.26,-000.20,0000.49,0000.00,0000.11,0000.24,0000.58,-000.04,21.4,27.7,,00.0,0637.2,31.4
2021-12-08T05:42:00Z,00000200,01000000,-000.26,0000.11,-000.37,-000.15,-000.16,-000.43,0000.23,-000.05,0000.41,21.4,27.7,,00.0,0637.2,31.5
2021-12-08T05:43:00Z,00000200,01000000,-000.42,0000.16,0000.09,0000.61,0000.18,0000.24,-000.03,-000.26,0000.01,21.4,27.8,,00.0,0637.2,31.5
2021-12-08T05:44:00Z,00000200,01000000,-000.02,0000.03,-000.31,-000.39,0000.27,-000.33,-000.37,0000.38,0000.06,21.5,27.8,,00.0,0637.1,31.5
2021-12-08T05:45:00Z,00000200,01000000,-000.23,0000.42,-000.01,-000.30,0000.14,0000.22,0000.42,-000.11,-000.49,21.5,27.8,,00.0,0637.1,31.5
2021-12-08T05:46:00Z,00000200,01000000,0000.21,0000.28,-000.13,0000.02,0000.30,-000.30,0000.17,-000.08,0000.35,21.6,27.8,,00.0,0637.1,31.5
2021-12-08T05:47:00Z,00000200,01000000,0000.18,-000.07,-000.31,0000.12,0000.04,-000.09,-000.31,0000.52,0000.03,21.6,27.8,,00.0,0637.1,31.5
2021-12-08T05:48:00Z,00000200,01000000,0000.55,0000.47,-000.23,-000.29,0000.10,-000.12,0000.37,-000.06,0000.03,21.6,27.8,,00.0,0637.0,31.5
2021-12-08T05:49:00Z,00000200,01000000,-000.44,0000.59,-000.03,0000.30,-000.16,-000.29,0000.02,0000.27,0000.09,21.5,27.8,,00.0,0637.0,31.5
2021-12-08T05:50:00Z,00000200,01000000,-000.11,0000.24,-000.03,-000.51,0000.12,-000.14,0000.21,-000.11,0000.23,21.4,27.8,,00.0,0637.0,31.5
2021-12-08T05:51:00Z,00000200,01000000,-000.33,0000.17,-000.37,-000.24,-000.10,0000.21,0000.19,-000.26,-000.04,21.4,27.7,,00.0,0636.9,31.4
2021-12-08T05:52:00Z,00000200,01000000,-000.49,0000.33,0000.06,0000.24,-000.19,0000.07,-000.43,0000.06,-000.11,21.3,27.7,,00.0,0637.0,31.4
2021-12-08T05:53:00Z,00000200,01000000,-000.56,0000.27,0000.07,0000.46,-000.05,-000.19,0000.34,0000.21,0000.19,21.3,27.7,,00.0,0636.9,31.4
2021-12-08T05:54:00Z,00000200,01000000,-000.41,0000.35,0000.11,-000.06,-000.09,-000.10,0000.05,0000.18,0000.08,21.3,27.6,,00.0,0636.9,31.4
2021-12-08T05:55:00Z,00000200,01000000,-000.06,0000.05,-000.18,0000.02,0000.40,-000.05,0000.04,-000.24,-000.10,21.3,27.7,,00.0,0636.9,31.4
2021-12-08T05:56:00Z,00000200,01000000,-000.01,-000.00,0000.04,0000.20,0000.01,0000.27,0000.41,0000.59,0000.20,21.4,27.7,,00.0,0636.9,31.4
2021-12-08T05:57:00Z,00000200,41000000,,,,,,,-000.02,-000.04,0000.11,21.4,27.7,,00.0,0636.9,31.4
2021-12-08T05:58:00Z,00000200,61000000,,,,,,,-000.07,-000.13,0000.22,21.1,27.8,,00.0,0636.0,31.4
2021-12-08T05:59:00Z,00000200,21000000,,,,,,,0000.13,0000.22,0000.03,21.1,27.9,,00.0,0636.0,31.5
